NIMBUS 2 DEB, 37893

Orbit data source: Space-Track

NIMBUS 2 DEB, 37893 is space debris in SSO originally from a launch on Sun, 15 May 1966 UTC launched from the Air Force Western Test Range (AFWTR). Debris objects in space refer to the collection of defunct objects orbiting the Earth. Examples of debris include non-operational satellites, rocket bodies, and fragments generated from explosions, collisions, or faulty payload assembly.

Loading next visibility...
Identifier
37893, 1966-040AY
Orbit
SSO
Country
Flag of USUS
Related business
Manufacturer
Unknown
Mission
Spacecraft
Bus & Motor
Unknown
Mass
Unknown
Launch date (UTC)
1966-05-15 (59 years ago)
Launch vehicle
Unknown
Launch site
Air Force Western Test Range (AFWTR)
Object type
Payload
Rocket body
Debris
Shape & HBR
Unknown shape, 0.1 m
Radar Cross Section
Small (<0.1 m²)

Expand to show TLE details & history
Last TLE update: 20 hours ago

TLE from 20 hours ago
0 NIMBUS 2 DEB
1 37893U 66040AY  25295.81899038  .00002389  00000-0  38757-2 0  9999
2 37893 100.5106 252.6195 0062319  17.2622  13.0457 13.48515383652538
Epoch: 2025-10-22T19:39Z
TLE epoch observation values (Epoch: 2025-10-22T19:39:20.768Z)
Latitude
29.95762°
Longitude
-79.81087°
Altitude
1,036.077 km
Speed
7.359 km/s
True Right ascension
16h 26m 03s
True Declination
29° 48' 53"
Sunlit
Object was in daylight at epoch
Visualization orbit readout
Latitude
Unknown
Longitude
Unknown
Altitude
Unknown
Speed
Unknown
Apparent Right ascension
Unknown
Apparent Declination
Unknown
Sunlit
N/A
Visualization observer readout
Local Sidereal Time
10:26:31
Azimuth
Unknown
Elevation
Unknown
Doppler factor
Unknown
Orbital elements
Apogee altitude
1,121.52 km
Perigee altitude
1,028.625 km
Semi-major axis
7,453.209 km
Eccentricity
0.00623
Inclination
100.5106°
RAAN
252.6195°
Arg. of periapsis
17.2622°
True anomaly
13.20813°
Mean anomaly
13.0457°
Eccentric anomaly
13.12679°
Mean motion
3.37309 °/min
Orbital period
106.73 mins
BSTAR
0.0038757
Loading maneuver chart data...
Computing Atmospheric mass density...
Loading historical data...
Loading historical data...
Loading historical data...
Loading historical data...
Loading historical data...
Loading historical data...
Loading historical data...

Documentation

Showing up to 5 results
|